User: anonymous   Login
Location: Unspecified
(0.0000°N, 0.0000°E)
Time: 02:15:05
(UTC+02:00)
Language:

Cosmos 1892 Rocket - Orbit

View from above orbital plane
View from above orbital plane
View from above satellite
View from above satellite

Ground track
Ground track

The orbit data is extracted from the following two-line orbital elements,

1 18422U 87088B   16269.05107760  .00000131  00000-0  13201-4 0  9994
2 18422  82.5101  65.3057 0018440 229.6118 269.6001 14.82883501562522
Epoch (UTC): 25 September 2016 01:13:33
Eccentricity: 0.0018440
inclination: 82.5101°
perigee height: 607 km
apogee height: 633 km
right ascension of ascending node: 65.3057°
argument of perigee: 229.6118°
revolutions per day: 14.82883501
mean anomaly at epoch: 269.6001°
orbit number at epoch: 56252

The dashed part of the orbit path shows where the satellite is in the earth's shadow,  

DLR